| time (UTC) | temp F | wind direction | speed knots | gust knots | rain 1hr in | rain 24hr in | rain mn in | humidity % | barometer mb |
| 20260505052013 | 57 | 229 | 0.9 | 0.9 | 0.00 | 0.00 | 0.00 | 60 | 1008.4 |
| 20260505051510 | 58 | 227 | 2.6 | 4.3 | 0.00 | 0.00 | 0.00 | 58 | 1008.0 |
| 20260505051008 | 59 | 237 | 2.6 | 2.6 | 0.00 | 0.00 | 0.00 | 53 | 1008.1 |
| 20260505050506 | 59 | 220 | 2.6 | 2.6 | 0.00 | 0.00 | 0.00 | 54 | 1008.0 |
| 20260505041433 | 62 | 202 | 0.9 | 0.9 | 0.00 | 0.00 | 0.00 | 47 | 1007.9 |
| 20260505040931 | 62 | 188 | 0.9 | 1.7 | 0.00 | 0.00 | 0.00 | 47 | 1007.8 |
| 20260505040428 | 62 | 327 | 0.9 | 1.7 | 0.00 | 0.00 | 0.00 | 47 | 1007.9 |
| 20260505035924 | 62 | 294 | 0.9 | 0.9 | 0.00 | 0.00 | 0.00 | 46 | 1007.9 |
| 20260505035421 | 62 | 287 | 0.9 | 1.7 | 0.00 | 0.00 | 0.00 | 46 | 1008.0 |
| 20260505034918 | 62 | 141 | 0.9 | 1.7 | 0.00 | 0.00 | 0.00 | 46 | 1007.7 |
| 20260505034414 | 63 | 216 | 0.0 | 0.9 | 0.00 | 0.00 | 0.00 | 46 | 1007.7 |
| 20260505033912 | 63 | 198 | 0.9 | 0.9 | 0.00 | 0.00 | 0.00 | 46 | 1007.9 |
| 20260505033408 | 63 | 118 | 0.9 | 1.7 | 0.00 | 0.00 | 0.00 | 46 | 1007.9 |
| 20260505032907 | 62 | 123 | 1.7 | 1.7 | 0.00 | 0.00 | 0.00 | 47 | 1007.7 |
| 20260505032403 | 62 | 220 | 0.0 | 0.9 | 0.00 | 0.00 | 0.00 | 47 | 1007.7 |
| 20260505031859 | 62 | 241 | 0.9 | 0.9 | 0.00 | 0.00 | 0.00 | 47 | 1007.7 |
| 20260505031356 | 62 | 227 | 0.0 | 0.0 | 0.00 | 0.00 | 0.00 | 47 | 1007.8 |
| 20260505030854 | 62 | 224 | 0.0 | 0.0 | 0.00 | 0.00 | 0.00 | 47 | 1007.5 |
| 20260505030349 | 63 | 227 | 0.9 | 0.9 | 0.00 | 0.00 | 0.00 | 46 | 1007.5 |
| 20260505025845 | 63 | 220 | 0.0 | 0.0 | 0.00 | 0.00 | 0.00 | 44 | 1007.3 |
| 20260505025343 | 64 | 221 | 0.0 | 0.9 | 0.00 | 0.00 | 0.00 | 44 | 1007.5 |
| 20260505024841 | 64 | 223 | 0.0 | 0.0 | 0.00 | 0.00 | 0.00 | 45 | 1007.2 |
| 20260505024339 | 65 | 213 | 0.0 | 0.0 | 0.00 | 0.00 | 0.00 | 43 | 1007.1 |
| 20260505023835 | 65 | 208 | 0.9 | 0.9 | 0.00 | 0.00 | 0.00 | 43 | 1006.8 |
| 20260505023332 | 65 | 213 | 0.9 | 0.9 | 0.00 | 0.00 | 0.00 | 43 | 1006.9 |
| 20260505022830 | 66 | 213 | 0.9 | 0.9 | 0.00 | 0.00 | 0.00 | 42 | 1007.0 |
| 20260505022326 | 66 | 218 | 0.9 | 0.9 | 0.00 | 0.00 | 0.00 | 41 | 1006.9 |
| 20260505021824 | 67 | 215 | 0.0 | 0.9 | 0.00 | 0.00 | 0.00 | 40 | 1006.9 |
| 20260505021320 | 67 | 205 | 0.9 | 0.9 | 0.00 | 0.00 | 0.00 | 39 | 1007.0 |
| 20260505020816 | 68 | 218 | 0.9 | 0.9 | 0.00 | 0.00 | 0.00 | 39 | 1006.8 |
| 20260505020312 | 68 | 198 | 1.7 | 1.7 | 0.00 | 0.00 | 0.00 | 38 | 1006.7 |
| 20260505015809 | 68 | 197 | 1.7 | 1.7 | 0.00 | 0.00 | 0.00 | 37 | 1006.8 |
| 20260505015306 | 68 | 196 | 0.9 | 1.7 | 0.00 | 0.00 | 0.00 | 38 | 1006.5 |
| 20260505014803 | 68 | 193 | 2.6 | 2.6 | 0.00 | 0.00 | 0.00 | 37 | 1006.7 |
| 20260505014300 | 68 | 222 | 0.0 | 0.9 | 0.00 | 0.00 | 0.00 | 38 | 1006.7 |
| 20260505013757 | 69 | 198 | 1.7 | 1.7 | 0.00 | 0.00 | 0.00 | 38 | 1006.8 |
| 20260505013254 | 69 | 185 | 2.6 | 2.6 | 0.00 | 0.00 | 0.00 | 37 | 1007.1 |
| 20260505012752 | 69 | 206 | 0.9 | 0.9 | 0.00 | 0.00 | 0.00 | 36 | 1006.9 |
| 20260505012250 | 69 | 222 | 0.0 | 0.9 | 0.00 | 0.00 | 0.00 | 36 | 1006.9 |
| 20260505011745 | 68 | 213 | 0.9 | 1.7 | 0.00 | 0.00 | 0.00 | 38 | 1007.0 |
| 20260505011242 | 68 | 202 | 0.9 | 0.9 | 0.00 | 0.00 | 0.00 | 39 | 1007.1 |
| 20260505010738 | 68 | 185 | 2.6 | 2.6 | 0.00 | 0.00 | 0.00 | 39 | 1007.0 |
| 20260505010234 | 68 | 179 | 1.7 | 1.7 | 0.00 | 0.00 | 0.00 | 38 | 1007.1 |
| 20260505005731 | 68 | 203 | 0.9 | 0.9 | 0.00 | 0.00 | 0.00 | 38 | 1007.3 |
| 20260505005228 | 68 | 212 | 2.6 | 2.6 | 0.00 | 0.00 | 0.00 | 39 | 1007.3 |
| 20260505004725 | 69 | 217 | 3.5 | 4.3 | 0.00 | 0.00 | 0.00 | 39 | 1007.6 |
| 20260505004221 | 69 | 259 | 2.6 | 2.6 | 0.00 | 0.00 | 0.00 | 34 | 1007.6 |
| 20260505003719 | 69 | 233 | 1.7 | 2.6 | 0.00 | 0.00 | 0.00 | 35 | 1007.6 |
| 20260505003217 | 69 | 276 | 1.7 | 1.7 | 0.00 | 0.00 | 0.00 | 34 | 1007.6 |
| 20260505002712 | 69 | 275 | 2.6 | 2.6 | 0.00 | 0.00 | 0.00 | 35 | 1007.7 |
| 20260505002210 | 69 | 144 | 2.6 | 4.3 | 0.00 | 0.00 | 0.00 | 33 | 1007.5 |
| 20260505001708 | 70 | 17 | 2.6 | 2.6 | 0.00 | 0.00 | 0.00 | 36 | 1007.6 |
| 20260505001205 | 70 | 354 | 3.5 | 5.2 | 0.00 | 0.00 | 0.00 | 35 | 1007.8 |
| 20260505000702 | 70 | 307 | 4.3 | 5.2 | 0.00 | 0.00 | 0.00 | 35 | 1007.8 |
| 20260505000200 | 70 | 30 | 0.9 | 1.7 | 0.00 | 0.00 | 0.00 | 35 | 1007.7 |
| 20260504235656 | 70 | 191 | 4.3 | 5.2 | 0.00 | 0.00 | 0.00 | 35 | 1007.6 |
| 20260504235152 | 71 | 13 | 2.6 | 2.6 | 0.00 | 0.00 | 0.00 | 36 | 1007.7 |
| 20260504234650 | 71 | 39 | 3.5 | 4.3 | 0.00 | 0.00 | 0.00 | 36 | 1007.7 |
| 20260504234147 | 71 | 42 | 1.7 | 1.7 | 0.00 | 0.00 | 0.00 | 36 | 1007.7 |
| 20260504233642 | 70 | 280 | 4.3 | 5.2 | 0.00 | 0.00 | 0.00 | 36 | 1007.6 |
| 20260504233138 | 70 | 312 | 7.0 | 7.8 | 0.00 | 0.00 | 0.00 | 36 | 1007.6 |
| 20260504232637 | 71 | 352 | 6.1 | 8.7 | 0.00 | 0.00 | 0.00 | 36 | 1007.5 |
| 20260504232133 | 70 | 327 | 8.7 | 11.3 | 0.00 | 0.00 | 0.00 | 37 | 1007.5 |
| 20260504231630 | 69 | 339 | 5.2 | 7.0 | 0.00 | 0.00 | 0.00 | 39 | 1007.5 |
| 20260504231126 | 69 | 16 | 9.6 | 13.0 | 0.00 | 0.00 | 0.00 | 40 | 1007.5 |
| 20260504230622 | 71 | 9 | 7.8 | 9.6 | 0.00 | 0.00 | 0.00 | 38 | 1007.6 |
| 20260504230121 | 76 | 334 | 9.6 | 13.9 | 0.00 | 0.00 | 0.00 | 32 | 1007.6 |
| 20260504225619 | 75 | 223 | 4.3 | 5.2 | 0.00 | 0.00 | 0.00 | 32 | 1007.1 |
| 20260504225115 | 75 | 229 | 5.2 | 7.0 | 0.00 | 0.00 | 0.00 | 33 | 1007.2 |
| 20260504224612 | 76 | 215 | 1.7 | 1.7 | 0.00 | 0.00 | 0.00 | 32 | 1007.0 |
| 20260504224109 | 76 | 230 | 0.9 | 0.9 | 0.00 | 0.00 | 0.00 | 32 | 1007.2 |
| 20260504223606 | 75 | 285 | 3.5 | 5.2 | 0.00 | 0.00 | 0.00 | 32 | 1007.1 |
| 20260504223101 | 76 | 260 | 1.7 | 2.6 | 0.00 | 0.00 | 0.00 | 31 | 1007.0 |
| 20260504222559 | 76 | 312 | 1.7 | 2.6 | 0.00 | 0.00 | 0.00 | 31 | 1007.1 |
| 20260504222056 | 76 | 219 | 0.9 | 0.9 | 0.00 | 0.00 | 0.00 | 30 | 1007.0 |
| 20260504221553 | 74 | 268 | 1.7 | 1.7 | 0.00 | 0.00 | 0.00 | 31 | 1007.1 |
| 20260504221050 | 75 | 18 | 2.6 | 2.6 | 0.00 | 0.00 | 0.00 | 30 | 1007.2 |
| 20260504220546 | 75 | 249 | 0.0 | 0.0 | 0.00 | 0.00 | 0.00 | 30 | 1007.2 |
| 20260504220043 | 76 | 38 | 2.6 | 4.3 | 0.00 | 0.00 | 0.00 | 31 | 1007.2 |
| 20260504215539 | 75 | 256 | 0.9 | 0.9 | 0.00 | 0.00 | 0.00 | 31 | 1007.3 |
| 20260504215037 | 74 | 322 | 2.6 | 2.6 | 0.00 | 0.00 | 0.00 | 30 | 1007.6 |
| 20260504214533 | 76 | 333 | 1.7 | 2.6 | 0.00 | 0.00 | 0.00 | 30 | 1007.5 |
| 20260504214030 | 75 | 274 | 3.5 | 5.2 | 0.00 | 0.00 | 0.00 | 32 | 1007.5 |
| 20260504213526 | 74 | 230 | 0.0 | 0.9 | 0.00 | 0.00 | 0.00 | 32 | 1007.8 |
| 20260504213023 | 75 | 231 | 1.7 | 2.6 | 0.00 | 0.00 | 0.00 | 30 | 1007.8 |
| 20260504212519 | 76 | 231 | 0.0 | 0.9 | 0.00 | 0.00 | 0.00 | 30 | 1007.9 |
| 20260504212017 | 75 | 212 | 1.7 | 1.7 | 0.00 | 0.00 | 0.00 | 30 | 1008.1 |
| 20260504211513 | 75 | 268 | 3.5 | 4.3 | 0.00 | 0.00 | 0.00 | 29 | 1008.3 |
| 20260504211011 | 74 | 301 | 4.3 | 5.2 | 0.00 | 0.00 | 0.00 | 33 | 1008.1 |
| 20260504210508 | 74 | 295 | 2.6 | 2.6 | 0.00 | 0.00 | 0.00 | 33 | 1008.0 |
| 20260504210004 | 76 | 251 | 2.6 | 2.6 | 0.00 | 0.00 | 0.00 | 33 | 1008.3 |
| 20260504205502 | 75 | 327 | 3.5 | 4.3 | 0.00 | 0.00 | 0.00 | 32 | 1008.3 |
| 20260504205000 | 74 | 241 | 2.6 | 2.6 | 0.00 | 0.00 | 0.00 | 33 | 1008.4 |
| 20260504204458 | 75 | 269 | 4.3 | 6.1 | 0.00 | 0.00 | 0.00 | 30 | 1008.5 |
| 20260504203957 | 74 | 273 | 0.9 | 1.7 | 0.00 | 0.00 | 0.00 | 35 | 1008.3 |
| 20260504203454 | 73 | 214 | 0.9 | 0.9 | 0.00 | 0.00 | 0.00 | 36 | 1008.5 |
| 20260504202950 | 73 | 231 | 1.7 | 1.7 | 0.00 | 0.00 | 0.00 | 36 | 1008.5 |
| 20260504202446 | 75 | 249 | 3.5 | 4.3 | 0.00 | 0.00 | 0.00 | 34 | 1008.6 |
| 20260504201943 | 74 | 44 | 1.7 | 1.7 | 0.00 | 0.00 | 0.00 | 34 | 1008.7 |
| 20260504201441 | 74 | 313 | 2.6 | 2.6 | 0.00 | 0.00 | 0.00 | 33 | 1008.6 |
| 20260504200938 | 74 | 260 | 1.7 | 1.7 | 0.00 | 0.00 | 0.00 | 35 | 1008.7 |
| 20260504200435 | 73 | 284 | 0.9 | 1.7 | 0.00 | 0.00 | 0.00 | 35 | 1008.8 |
| 20260504195931 | 73 | 222 | 2.6 | 2.6 | 0.00 | 0.00 | 0.00 | 36 | 1008.9 |
| 20260504195427 | 72 | 230 | 2.6 | 2.6 | 0.00 | 0.00 | 0.00 | 36 | 1008.9 |
| 20260504194924 | 72 | 334 | 2.6 | 4.3 | 0.00 | 0.00 | 0.00 | 34 | 1008.9 |
| 20260504194420 | 73 | 290 | 1.7 | 1.7 | 0.00 | 0.00 | 0.00 | 35 | 1008.8 |
| 20260504193916 | 73 | 228 | 1.7 | 1.7 | 0.00 | 0.00 | 0.00 | 35 | 1009.1 |
| 20260504193414 | 73 | 281 | 3.5 | 4.3 | 0.00 | 0.00 | 0.00 | 36 | 1009.2 |
| 20260504192912 | 73 | 56 | 3.5 | 4.3 | 0.00 | 0.00 | 0.00 | 35 | 1009.3 |
| 20260504192409 | 72 | 50 | 2.6 | 4.3 | 0.00 | 0.00 | 0.00 | 36 | 1009.4 |
| 20260504191908 | 72 | 261 | 1.7 | 1.7 | 0.00 | 0.00 | 0.00 | 37 | 1009.4 |
| 20260504191405 | 72 | 284 | 0.9 | 1.7 | 0.00 | 0.00 | 0.00 | 36 | 1009.4 |
| 20260504190900 | 73 | 345 | 2.6 | 2.6 | 0.00 | 0.00 | 0.00 | 37 | 1009.3 |
| 20260504190356 | 71 | 205 | 0.9 | 0.9 | 0.00 | 0.00 | 0.00 | 37 | 1009.5 |
| 20260504185853 | 71 | 223 | 1.7 | 1.7 | 0.00 | 0.00 | 0.00 | 38 | 1009.7 |
| 20260504185350 | 71 | 297 | 2.6 | 4.3 | 0.00 | 0.00 | 0.00 | 36 | 1010.0 |
| 20260504184846 | 71 | 329 | 0.9 | 0.9 | 0.00 | 0.00 | 0.00 | 37 | 1009.9 |
| 20260504184342 | 71 | 209 | 2.6 | 2.6 | 0.00 | 0.00 | 0.00 | 37 | 1010.0 |
| 20260504183838 | 70 | 231 | 1.7 | 1.7 | 0.00 | 0.00 | 0.00 | 37 | 1009.9 |
| 20260504183336 | 72 | 320 | 4.3 | 5.2 | 0.00 | 0.00 | 0.00 | 36 | 1010.1 |
| 20260504182833 | 70 | 217 | 0.9 | 1.7 | 0.00 | 0.00 | 0.00 | 38 | 1010.3 |
| 20260504182331 | 70 | 279 | 2.6 | 2.6 | 0.00 | 0.00 | 0.00 | 39 | 1010.3 |
| 20260504181827 | 71 | 317 | 3.5 | 5.2 | 0.00 | 0.00 | 0.00 | 38 | 1010.3 |
| 20260504181325 | 70 | 254 | 0.0 | 0.9 | 0.00 | 0.00 | 0.00 | 38 | 1010.4 |
| 20260504180824 | 70 | 342 | 2.6 | 2.6 | 0.00 | 0.00 | 0.00 | 39 | 1010.4 |
| 20260504180322 | 69 | 347 | 3.5 | 4.3 | 0.00 | 0.00 | 0.00 | 41 | 1010.4 |
| 20260504175820 | 69 | 89 | 1.7 | 2.6 | 0.00 | 0.00 | 0.00 | 40 | 1010.5 |
| 20260504175316 | 69 | 305 | 0.9 | 1.7 | 0.00 | 0.00 | 0.00 | 40 | 1010.8 |
| 20260504174815 | 67 | 55 | 2.6 | 2.6 | 0.00 | 0.00 | 0.00 | 41 | 1010.9 |
| 20260504174312 | 66 | 286 | 2.6 | 2.6 | 0.00 | 0.00 | 0.00 | 41 | 1010.8 |
| 20260504173808 | 66 | 226 | 0.9 | 0.9 | 0.00 | 0.00 | 0.00 | 41 | 1010.9 |
| 20260504173305 | 66 | 314 | 1.7 | 2.6 | 0.00 | 0.00 | 0.00 | 45 | 1010.9 |
| 20260504172802 | 66 | 195 | 0.9 | 0.9 | 0.00 | 0.00 | 0.00 | 45 | 1010.9 |
| 20260504172259 | 64 | 210 | 0.9 | 0.9 | 0.00 | 0.00 | 0.00 | 47 | 1010.9 |
| 20260504171754 | 64 | 301 | 2.6 | 2.6 | 0.00 | 0.00 | 0.00 | 47 | 1010.8 |
| 20260504171252 | 64 | 168 | 1.7 | 1.7 | 0.00 | 0.00 | 0.00 | 47 | 1010.9 |
| 20260504170749 | 64 | 163 | 1.7 | 1.7 | 0.00 | 0.00 | 0.00 | 46 | 1010.9 |
| 20260504170246 | 63 | 214 | 0.9 | 0.9 | 0.00 | 0.00 | 0.00 | 46 | 1011.1 |
| 20260504160204 | 58 | 217 | 0.9 | 1.7 | 0.00 | 0.00 | 0.00 | 50 | 1011.2 |
| 20260504151132 | 55 | 325 | 2.6 | 2.6 | 0.00 | 0.00 | 0.00 | 58 | 1011.2 |
| 20260504150630 | 55 | 273 | 2.6 | 2.6 | 0.00 | 0.00 | 0.00 | 59 | 1011.2 |
| 20260504150126 | 55 | 214 | 0.0 | 0.0 | 0.00 | 0.00 | 0.00 | 56 | 1011.3 |
| 20260504141055 | 48 | 218 | 2.6 | 2.6 | 0.00 | 0.00 | 0.00 | 67 | 1011.6 |
| 20260504140551 | 47 | 222 | 0.9 | 0.9 | 0.00 | 0.00 | 0.00 | 69 | 1011.7 |
| 20260504130516 | 47 | 287 | 1.7 | 1.7 | 0.00 | 0.00 | 0.00 | 62 | 1011.2 |
| 20260504110403 | 45 | 193 | 2.6 | 2.6 | 0.00 | 0.00 | 0.00 | 72 | 1011.1 |
| 20260504100320 | 48 | 37 | 4.3 | 5.2 | 0.00 | 0.00 | 0.00 | 64 | 1010.8 |
| 20260504081714 | 54 | 54 | 5.2 | 7.0 | 0.00 | 0.00 | 0.00 | 41 | 1010.9 |
| 20260504081210 | 55 | 40 | 4.3 | 6.1 | 0.00 | 0.00 | 0.00 | 41 | 1010.9 |
| 20260504080707 | 56 | 75 | 3.5 | 4.3 | 0.00 | 0.00 | 0.00 | 40 | 1010.9 |
| 20260504080203 | 55 | 73 | 4.3 | 6.1 | 0.00 | 0.00 | 0.00 | 39 | 1010.9 |
| 20260504070131 | 56 | 191 | 1.7 | 1.7 | 0.00 | 0.00 | 0.00 | 42 | 1011.2 |